NOAA-14
1 23455U 94089A   05040.87982995  .00000434  00000-0  25503-3 0 04708
2 23455 099.1100 087.0242 0009146 004.3259 355.7972 14.13537515521514
SICH-1
1 23657U 95046A   05040.88901233  .00001173  00000-0  14742-3 0 03515
2 23657 082.5313 156.9065 0024339 177.5976 182.5401 14.81082932509117
NOAA-15
1 25338U 98030A   05040.72502097  .00000048  00000-0  38896-4 0 09161
2 25338 098.5171 052.9216 0010935 016.3984 343.7548 14.24487447350601
RESURS
1 25394U 98043A   05040.96778217 -.00000019  00000-0  10193-4 0 00375
2 25394 098.5560 113.7231 0001980 139.6458 220.4869 14.24049861342346
FENGYUN1
1 25730U 99025A   05040.56661565  .00000451  00000-0  26973-3 0 03467
2 25730 098.6046 047.4571 0015306 103.9103 256.3794 14.11790820296503
OKEAN-0
1 25860U 99039A   05040.95359472 -.00000123  00000-0 -11724-4 0 03557
2 25860 097.7722 072.3552 0000743 140.3081 219.8170 14.73201244299277
NOAA-16
1 26536U 00055A   05040.68990386 -.00000028  00000-0  95440-5 0 02227
2 26536 098.9979 358.5107 0011199 069.8105 290.4215 14.12206116226067
NOAA-17
1 27453U 02032A   05040.72769011  .00000166  00000-0  91811-4 0 02484
2 27453 098.6743 116.1109 0012479 069.3671 290.8909 14.23629510136701
HUBBLE
1 20580U 90037B   05040.34754046  .00000685  00000-0  41314-4 0 02760
2 20580 028.4688 021.6670 0003562 359.0241 001.0341 14.99577857611037
UARS
1 21701U 91063B   05040.82756637  .00000288  00000-0  39519-4 0 03749
2 21701 056.9812 346.3019 0007022 099.1700 261.0131 15.03754861734331
PO-34
1 25520U 98064B   05040.48104896  .00000931  00000-0  37182-4 0 01192
2 25520 028.4602 085.9622 0005467 271.5481 088.4488 15.16088615347184
ISS
1 25544U 98067A   05040.86818061  .00030818  00000-0  24673-3 0 07822
2 25544 051.6482 191.9780 0009531 079.9465 079.6305 15.70727217355665
OO-38
1 26063U 00004C   05040.59476175  .00000089  00000-0  50703-4 0 02803
2 26063 100.2270 237.1775 0037138 054.7624 305.7027 14.35701085263990
NO-45
1 26932U 01043D   05040.87889907 -.00000006  00000-0  30099-4 0 09605
2 26932 067.0554 195.3200 0008876 271.9187 088.0928 14.29469153175603
